Regional Weather Roundup
Issued by NWS

Home | Current Version | Previous Version | Graphics & Text | Print | Product List | Glossary On
Versions: 1 2 3 4 5 6 7 8 9 10 11 12 13 14 15 16 17 18 19 20 21 22 23 24 25 26 27 28 29 30 31 32 33 34 35 36 37 38 39 40 41 42 43 44 45 46 47 48 49 50
000
ASUS45 KSLC 031910
RWRUT

UTAH REGIONAL WEATHER ROUNDUP
NATIONAL WEATHER SERVICE SALT LAKE CITY UT
1200 PM MST TUE MAR 03 2015

UTZ001>011-023>025-032000-

NORTHERN UTAH

CITY           SKY/WX    TMP DP  RH WIND       PRES   REMARKS
BRIGHAM CITY   CLOUDY    33  23  69 N9        29.88R WCI  25
HILL AFB       MOSUNNY   32  28  86 NW10      29.86R WCI  23
LOGAN          SUNNY     30  22  72 N8        29.87R WCI  22
OGDEN          MOSUNNY   33  25  72 NW12      29.86R WCI  24
PROVO AIRPORT  PTSUNNY   32  27  80 NW14      29.86R WCI  22
SALT LAKE CITY FLURRIES  33  30  88 W5        29.88S WCI  29
VERNAL         MOSUNNY   33  26  75 CALM      29.75F
WENDOVER       MOSUNNY   37  16  41 N21G28    29.92R WCI  27
HEBER CITY     CLOUDY    32  27  80 SW10      29.79R WCI  24
WEST JORDAN    CLOUDY    32  30  93 NW14      29.88S WCI  22

$$

UTZ012>022-026-027-032000-

SOUTHERN/CENTRAL UTAH

CITY           SKY/WX    TMP DP  RH WIND       PRES   REMARKS
BLANDING       CLOUDY    36  30  78 S8        29.92F WCI  30
BRYCE CANYON   PTSUNNY   27  21  78 SE8       29.82F WCI  19
CEDAR CITY     CLOUDY    34  30  85 SW10      29.86S WCI  26
DELTA          CLOUDY    32  30  93 N8        29.87S WCI  25
HANKSVILLE     MOSUNNY   46  28  49 S7        29.82F
MILFORD        CLOUDY    38  30  73 S12       29.85  WCI  30
MOAB/CYNLANDS  CLOUDY    45  25  45 SW13      29.77F
PRICE          PTSUNNY   33  26  75 E3        29.77F
ST GEORGE      CLOUDY    46  37  71 W5        29.94F
KANAB          PTSUNNY   37  32  81 W6        29.93S WCI  33

$$

REGIONAL REPORTS     COLORADO/ARIZONA

CITY           SKY/WX    TMP DP  RH WIND       PRES   REMARKS
CRAIG, CO      LGT SNOW  32  27  81 CALM      29.73F
GRAND JUNCTION CLOUDY    39  31  72 NW9       29.79F WCI  33
RIFLE          PTSUNNY   39  28  64 W22       29.75F WCI  29
MONTROSE       PTSUNNY   39  22  50 N5        29.80F
CORTEZ         CLOUDY    40  27  59 SW14      29.85F WCI  32
PAGE, AZ       PTSUNNY   45  30  55 CALM      29.87S
GRAND CANYON   CLOUDY    30  26  85 SW8       29.91S WCI  22
KINGMAN        PTSUNNY   50  34  54 W6        29.94F
FLAGSTAFF      NOT AVBL

$$

REGIONAL REPORTS    NEVADA/IDAHO/WYOMING

CITY           SKY/WX    TMP DP  RH WIND       PRES   REMARKS
LAS VEGAS, NV  MOSUNNY   55  35  47 E3        29.90S
ELY            CLOUDY    30  19  63 NW10      29.89S WCI  21
ELKO           SUNNY     32  16  51 NW17      29.97R WCI  21
POCATELLO, ID  SUNNY     26  11  52 NE12      29.95R WCI  16
BURLEY         CLOUDY    29  21  72 SW5       29.95R WCI  24
EVANSTON, WY   CLOUDY    26  14  60 NW14      29.76R WCI  14
ROCK SPRINGS   LGT SNOW  13   9  84 NE18      29.75R FOG     WCI  -4
KEMMERER       PTSUNNY   28  16  59 W18       29.72R WCI  16

$$



USA.gov is the U.S. government's official web portal to all federal, state and local government web resources and services.